Time[GMT],significant_wave_height[m](0m),dominant_wave_period[s](0m),max_wave_height[m](0m),mean_wave_direction[degrees](0m),mean_wave_direction_spread[degrees](0m)
2022-08-20 15:00, 0.94,5.6,1.52,116.50,31.00
2022-08-20 16:00, 0.91,5.7,1.59,118.50,32.00
2022-08-20 17:00, 0.95,4.8,1.80,115.50,31.00
2022-08-20 18:00, 0.99,3.9,1.54,117.50,32.00
2022-08-20 19:00, 0.99,5.6,1.78,118.50,29.00
2022-08-20 20:00, 0.99,5.3,1.66,113.50,28.00
2022-08-20 21:00, 1.04,5.7,1.95,114.50,28.00
2022-08-20 22:00, 1.09,5.6,2.05,113.50,27.00
2022-08-20 23:00, 1.07,5.6,1.68,111.50,27.00
2022-08-21 00:00, 1.02,4.4,1.69,112.50,28.00
2022-08-21 01:00, 0.96,5.4,1.42,117.50,27.00
2022-08-21 02:00, 0.86,5.0,1.32,120.50,31.00
2022-08-21 03:00, 0.89,6.3,1.43,120.50,32.00
2022-08-21 04:00, 0.87,6.3,1.34,120.50,32.00
2022-08-21 05:00, 0.88,5.7,1.37,123.50,31.00
2022-08-21 06:00, 0.83,5.9,1.42,120.50,28.00
2022-08-21 07:00, 0.97,6.3,1.62,119.50,28.00
2022-08-21 08:00, 1.06,6.3,1.49,116.50,26.00
2022-08-21 09:00, 1.09,6.5,1.63,115.50,26.00
2022-08-21 10:00, 1.20,6.3,1.91,115.50,24.00
2022-08-21 11:00, 1.32,5.9,1.94,114.50,24.00
2022-08-21 12:00, 1.20,6.7,2.27,109.50,26.00
2022-08-21 13:00, 1.15,5.7,1.88,115.50,25.00
2022-08-21 14:00, 0.98,5.7,1.77,117.50,28.00
2022-08-21 15:00, 0.10,1.0,5.60,349.43,137.00
2022-08-21 16:00, 1.02,5.9,2.02,124.50,30.00
2022-08-21 17:00, 0.99,6.3,1.90,126.50,31.00
2022-08-21 18:00, 0.97,6.3,1.72,128.50,30.00
2022-08-21 19:00, 0.86,6.3,1.35,126.50,31.00
2022-08-21 20:00, 0.86,6.5,1.20,129.50,32.00
2022-08-21 21:00, 0.81,6.1,1.30,127.50,31.00
2022-08-21 22:00, 0.81,6.3,1.23,126.50,30.00
2022-08-21 23:00, 0.82,5.7,1.32,125.50,29.00
2022-08-22 00:00, 0.73,5.6,1.45,126.50,32.00
2022-08-22 01:00, 0.71,6.1,1.20,125.50,33.00
2022-08-22 02:00, 0.65,5.7,1.01,126.50,35.00
2022-08-22 03:00, 0.58,5.4,0.95,132.50,36.00
2022-08-22 04:00, 0.65,5.9,1.09,132.50,30.00
2022-08-22 05:00, 0.59,5.6,0.89,130.50,33.00
2022-08-22 06:00, 0.59,5.7,0.93,134.50,32.00
2022-08-22 07:00, 0.53,5.6,0.99,134.50,33.00
2022-08-22 08:00, 0.60,4.9,1.21,128.50,29.00
2022-08-22 09:00, 0.54,5.7,0.78,124.50,31.00
2022-08-22 10:00, 0.59,5.3,1.05,122.50,28.00
2022-08-22 11:00, 0.59,5.4,1.03,115.50,28.00
2022-08-22 12:00, 0.63,5.4,1.08,117.50,29.00
2022-08-22 13:00, 0.64,5.3,1.07,117.50,30.00
2022-08-22 14:00, 0.59,5.3,1.06,117.50,31.00
2022-08-22 15:00, 0.59,5.6,0.98,115.50,30.00
2022-08-22 16:00, 0.54,5.3,1.00,120.50,31.00
2022-08-22 17:00, 0.55,5.1,0.85,121.50,33.00
2022-08-22 18:00, 0.58,5.7,0.98,126.50,31.00
2022-08-22 19:00, 0.57,4.3,0.81,121.50,34.00
2022-08-22 20:00, 0.59,5.0,0.92,121.50,35.00
2022-08-22 21:00, 0.52,4.5,0.92,125.50,34.00
2022-08-22 22:00, 0.47,4.4,0.74,123.50,39.00
2022-08-22 23:00, 0.45,5.1,0.76,132.50,38.00
2022-08-23 00:00, 0.46,4.8,0.71,132.50,37.00
2022-08-23 01:00, 0.51,4.7,0.83,128.50,34.00
2022-08-23 02:00, 0.51,4.5,0.76,130.50,38.00
2022-08-23 03:00, 0.52,4.4,0.84,135.50,35.00
2022-08-23 04:00, 0.51,4.5,0.85,135.50,34.00
2022-08-23 05:00, 0.50,4.9,0.78,140.50,36.00
2022-08-23 06:00, 0.50,4.3,0.84,147.50,35.00
2022-08-23 07:00, 0.46,4.3,0.77,145.50,35.00
2022-08-23 08:00, 0.51,5.0,0.85,140.50,33.00
2022-08-23 09:00, 0.48,4.9,0.77,139.50,32.00
2022-08-23 10:00, 0.48,4.9,0.73,134.50,36.00
2022-08-23 11:00, 0.53,4.9,0.81,138.50,36.00
2022-08-23 12:00, 0.50,4.9,0.95,135.50,37.00
2022-08-23 13:00, 0.56,4.7,0.86,127.50,34.00
2022-08-23 14:00, 0.65,5.0,1.18,122.50,33.00
2022-08-23 15:00, 0.82,4.9,1.29,123.50,30.00
2022-08-23 16:00, 0.81,4.8,1.33,123.50,34.00
2022-08-23 17:00, 0.78,4.5,1.17,121.50,32.00
2022-08-23 18:00, 0.84,4.8,1.33,125.50,30.00
2022-08-23 19:00, 0.79,5.0,1.31,129.50,33.00
2022-08-23 20:00, 0.81,5.1,1.26,128.50,32.00
2022-08-23 21:00, 0.79,4.7,1.41,131.50,33.00
2022-08-23 22:00, 0.74,4.9,1.22,134.50,32.00
2022-08-23 23:00, 0.74,5.0,1.11,135.50,31.00
2022-08-24 00:00, 0.74,4.9,1.22,142.50,32.00
2022-08-24 01:00, 0.63,5.1,1.14,135.50,35.00
2022-08-24 02:00, 0.61,4.8,0.99,134.50,35.00
2022-08-24 03:00, 0.65,5.3,1.16,139.50,34.00
2022-08-24 04:00, 0.64,5.0,0.98,142.50,32.00
2022-08-24 05:00, 0.68,4.7,1.08,139.50,34.00
2022-08-24 06:00, 0.66,4.5,1.19,139.50,35.00
2022-08-24 07:00, 0.69,4.9,1.26,141.50,33.00
2022-08-24 08:00, 0.70,5.1,1.15,136.50,33.00
2022-08-24 09:00, 0.73,5.1,1.19,136.50,30.00
2022-08-24 10:00, 0.73,5.1,1.23,129.50,31.00
2022-08-24 11:00, 0.82,5.0,1.42,130.50,31.00
2022-08-24 12:00, 0.87,4.4,1.68,126.50,29.00
2022-08-24 13:00, 0.91,5.4,1.33,122.50,30.00
2022-08-24 14:00, 0.97,5.0,1.69,121.50,28.00
2022-08-24 15:00, 1.00,5.4,1.76,115.50,30.00
2022-08-24 16:00, 1.03,5.3,1.96,113.50,29.00
2022-08-24 17:00, 0.97,4.9,1.79,118.50,32.00
2022-08-24 18:00, 0.97,5.4,1.54,114.50,31.00
2022-08-24 19:00, 0.90,5.6,1.29,117.50,32.00
2022-08-24 20:00, 0.85,5.3,1.31,120.50,33.00
2022-08-24 21:00, 0.94,5.1,1.61,120.50,33.00
2022-08-24 22:00, 0.95,4.9,1.66,119.50,32.00
2022-08-24 23:00, 0.88,5.7,1.48,119.50,32.00
2022-08-25 00:00, 0.81,5.6,1.39,116.50,33.00
2022-08-25 01:00, 0.80,4.9,1.50,122.50,33.00
2022-08-25 02:00, 0.82,4.9,1.48,121.50,29.00
2022-08-25 03:00, 0.72,5.4,1.18,123.50,32.00
2022-08-25 04:00, 0.68,4.7,1.10,122.50,32.00
2022-08-25 05:00, 0.64,4.8,1.05,123.50,32.00
2022-08-25 06:00, 0.68,5.9,1.18,124.50,31.00
2022-08-25 07:00, 0.67,5.9,1.03,122.50,31.00
2022-08-25 08:00, 0.69,4.8,1.11,123.50,29.00
2022-08-25 09:00, 0.67,5.4,1.02,121.50,29.00
2022-08-25 10:00, 0.71,4.8,1.22,122.50,28.00
2022-08-25 11:00, 0.69,5.9,1.03,118.50,27.00
2022-08-25 12:00, 0.65,5.7,0.98,118.50,29.00
2022-08-25 13:00, 0.74,5.0,1.31,117.50,25.00
2022-08-25 14:00, 0.91,4.2,1.42,109.50,25.00
2022-08-25 15:00, 0.94,4.3,1.46,102.50,26.00
2022-08-25 16:00, 0.96,4.7,1.78,102.50,25.00
2022-08-25 17:00, 1.12,4.3,1.99,100.50,24.00
2022-08-25 18:00, 1.10,4.7,1.59,102.50,24.00
2022-08-25 19:00, 0.92,4.1,1.64,103.50,27.00
2022-08-25 20:00, 0.83,3.7,1.39,105.50,29.00
2022-08-25 21:00, 0.72,4.1,1.20,111.50,31.00
2022-08-25 22:00, 0.72,5.3,1.32,114.50,28.00
2022-08-25 23:00, 0.65,5.3,1.03,114.50,30.00
2022-08-26 00:00, 0.64,5.3,0.88,118.50,30.00
2022-08-26 01:00, 0.60,4.2,1.06,117.50,33.00
2022-08-26 02:00, 0.56,5.4,0.83,120.50,32.00
2022-08-26 03:00, 0.58,4.8,0.92,121.50,30.00
2022-08-26 04:00, 0.56,4.8,0.92,122.50,32.00
2022-08-26 05:00, 0.57,5.3,0.97,124.50,30.00
2022-08-26 06:00, 0.59,5.0,0.92,121.50,28.00
2022-08-26 07:00, 0.59,4.2,0.96,119.50,28.00
2022-08-26 08:00, 0.56,5.0,0.91,115.50,27.00
2022-08-26 09:00, 0.54,4.5,0.86,115.50,29.00
2022-08-26 10:00, 0.58,4.7,1.12,114.50,27.00
2022-08-26 11:00, 0.59,4.2,1.04,112.50,28.00
2022-08-26 12:00, 0.61,4.0,1.23,109.50,28.00
2022-08-26 13:00, 0.67,4.9,1.00,106.50,27.00
2022-08-26 14:00, 0.73,5.3,1.26,101.50,26.00
2022-08-26 15:00, 0.83,4.7,1.28,104.50,25.00
2022-08-26 16:00, 0.87,4.7,1.37,103.50,25.00
2022-08-26 17:00, 0.98,5.4,1.57,106.50,25.00
2022-08-26 18:00, 1.01,4.3,2.07,107.50,25.00
2022-08-26 19:00, 0.96,4.2,1.50,103.50,27.00
2022-08-26 20:00, 0.94,3.8,1.57,104.50,27.00
2022-08-26 21:00, 0.87,4.1,1.30,105.50,26.00
2022-08-26 22:00, 0.78,4.4,1.19,106.50,28.00
2022-08-26 23:00, 0.86,3.6,1.37,106.50,27.00
2022-08-27 00:00, 0.77,5.1,1.37,109.50,29.00
2022-08-27 01:00, 0.76,6.1,1.23,113.50,29.00
2022-08-27 02:00, 0.78,4.4,1.31,111.50,29.00
2022-08-27 03:00, 0.79,5.9,1.49,114.50,29.00
2022-08-27 04:00, 0.80,5.7,1.39,115.50,30.00
2022-08-27 05:00, 0.87,4.8,1.37,119.50,28.00
2022-08-27 06:00, 0.85,4.7,1.22,119.50,29.00
2022-08-27 07:00, 0.85,5.4,1.50,115.50,30.00
2022-08-27 08:00, 0.89,5.9,1.60,112.50,29.00
2022-08-27 09:00, 0.87,5.6,1.41,120.50,27.00
2022-08-27 10:00, 0.76,5.0,1.36,122.50,27.00
2022-08-27 11:00, 0.80,5.4,1.32,119.50,27.00
2022-08-27 12:00, 0.75,5.4,1.25,125.50,28.00
2022-08-27 13:00, 0.76,5.7,1.20,134.50,28.00
2022-08-27 14:00, 0.69,5.9,1.33,127.50,28.00
2022-08-27 15:00, 0.71,6.1,1.22,125.50,32.00
2022-08-27 16:00, 0.89,5.7,1.45,117.50,29.00
2022-08-27 17:00, 0.99,4.9,1.70,119.50,28.00
2022-08-27 18:00, 0.99,6.1,1.84,120.50,27.00
2022-08-27 19:00, 1.00,5.7,1.60,118.50,27.00
2022-08-27 20:00, 0.94,5.7,1.54,121.50,28.00
2022-08-27 21:00, 0.94,5.6,1.55,120.50,28.00
2022-08-27 22:00, 0.90,5.9,1.60,123.50,28.00
2022-08-27 23:00, 0.89,5.9,1.43,119.50,28.00
2022-08-28 00:00, 0.91,5.9,1.48,118.50,28.00
2022-08-28 01:00, 0.83,5.7,1.27,118.50,29.00
2022-08-28 02:00, 0.80,5.4,1.31,120.50,29.00
2022-08-28 03:00, 0.78,5.9,1.16,119.50,31.00
2022-08-28 04:00, 0.76,5.4,1.17,121.50,27.00
2022-08-28 05:00, 0.75,5.9,1.22,126.50,30.00
2022-08-28 06:00, 0.74,5.7,1.08,121.50,29.00
2022-08-28 07:00, 0.84,5.7,1.31,122.50,28.00
2022-08-28 08:00, 0.81,5.7,1.27,121.50,29.00
2022-08-28 09:00, 0.77,5.7,1.23,124.50,27.00
2022-08-28 10:00, 0.75,5.7,1.10,123.50,28.00
2022-08-28 11:00, 0.71,5.7,1.11,129.50,28.00
2022-08-28 12:00, 0.71,5.4,1.05,127.50,29.00
2022-08-28 13:00, 0.77,5.3,1.24,121.50,27.00
2022-08-28 14:00, 0.81,5.6,1.47,119.50,29.00
2022-08-28 15:00, 0.86,5.6,1.36,114.50,28.00
2022-08-28 16:00, 0.85,5.4,1.35,119.50,27.00
2022-08-28 17:00, 0.94,5.6,1.39,115.50,28.00
2022-08-28 18:00, 0.89,5.7,1.51,117.50,28.00
2022-08-28 19:00, 0.91,5.4,1.54,122.50,28.00
2022-08-28 20:00, 0.89,5.3,1.58,121.50,30.00
2022-08-28 21:00, 0.80,5.1,1.32,123.50,31.00
2022-08-28 22:00, 0.73,5.4,1.29,125.50,33.00
2022-08-28 23:00, 0.68,5.1,1.03,126.50,34.00
2022-08-29 00:00, 0.68,5.3,1.27,124.50,34.00
2022-08-29 01:00, 0.68,5.0,1.15,125.50,33.00
2022-08-29 02:00, 0.66,4.8,1.08,131.50,30.00
2022-08-29 03:00, 0.64,5.4,1.16,130.50,30.00
2022-08-29 04:00, 0.69,5.1,1.23,121.50,32.00
2022-08-29 05:00, 0.62,5.1,0.95,120.50,33.00
2022-08-29 06:00, 0.51,4.9,0.77,133.50,37.00
2022-08-29 07:00, 0.59,5.3,0.93,128.50,32.00
2022-08-29 08:00, 0.65,4.9,1.14,130.50,30.00
2022-08-29 09:00, 0.64,4.9,1.01,130.50,32.00
2022-08-29 10:00, 0.64,4.9,1.07,128.50,34.00
2022-08-29 11:00, 0.68,4.5,1.15,127.50,32.00
2022-08-29 12:00, 0.60,5.1,0.84,129.50,34.00
2022-08-29 13:00, 0.64,4.5,1.14,123.50,33.00
2022-08-29 14:00, 0.58,4.1,1.18,122.50,34.00
2022-08-29 15:00, 0.67,4.5,1.12,116.50,32.00
2022-08-29 16:00, 0.63,4.4,1.34,116.50,34.00
2022-08-29 17:00, 0.76,4.5,1.30,117.50,29.00
2022-08-29 18:00, 0.78,4.2,1.21,115.50,32.00
2022-08-29 19:00, 0.76,4.5,1.20,115.50,31.00
2022-08-29 20:00, 0.71,4.8,1.12,120.50,30.00
2022-08-29 21:00, 0.74,3.6,1.36,120.50,29.00
2022-08-29 22:00, 0.84,3.9,1.84,121.50,26.00
2022-08-29 23:00, 0.65,3.1,1.02,120.50,32.00
2022-08-30 00:00, 0.72,4.9,1.36,119.50,31.00
2022-08-30 01:00, 0.70,3.4,1.14,114.50,31.00
2022-08-30 02:00, 0.62,4.7,0.99,116.50,33.00
2022-08-30 03:00, 0.61,4.8,0.92,117.50,31.00
2022-08-30 04:00, 0.60,5.6,0.94,117.50,31.00
2022-08-30 05:00, 0.54,4.8,0.86,122.50,32.00
2022-08-30 06:00, 0.48,4.9,0.90,127.50,34.00
2022-08-30 07:00, 0.48,5.0,0.84,124.50,35.00
2022-08-30 08:00, 0.54,4.9,0.93,124.50,32.00
2022-08-30 09:00, 0.51,4.7,0.84,123.50,32.00
2022-08-30 10:00, 0.52,4.9,0.85,127.50,33.00
2022-08-30 11:00, 0.48,4.3,0.79,126.50,34.00
2022-08-30 12:00, 0.54,4.9,0.91,129.50,32.00
2022-08-30 13:00, 0.53,4.7,0.82,130.50,33.00
2022-08-30 14:00, 0.53,4.7,0.92,127.50,35.00
2022-08-30 15:00, 0.64,4.1,1.22,119.50,31.00
2022-08-30 16:00, 0.71,4.2,1.16,119.50,31.00
2022-08-30 17:00, 0.79,5.1,1.18,123.50,31.00
2022-08-30 18:00, 0.85,3.8,1.45,121.50,31.00
2022-08-30 19:00, 0.89,4.2,1.41,122.50,29.00
2022-08-30 20:00, 0.80,5.3,1.42,120.50,31.00
2022-08-30 21:00, 0.74,4.5,1.13,126.50,35.00
2022-08-30 22:00, 0.77,5.1,1.32,127.50,30.00
2022-08-30 23:00, 0.73,5.6,1.23,128.50,30.00
2022-08-31 00:00, 0.70,5.1,1.12,128.50,32.00
2022-08-31 01:00, 0.67,5.1,1.01,124.50,33.00
2022-08-31 02:00, 0.64,5.6,0.97,124.50,33.00
2022-08-31 03:00, 0.61,5.3,0.99,122.50,32.00
2022-08-31 04:00, 0.54,5.4,0.89,129.50,33.00
2022-08-31 05:00, 0.54,5.0,0.87,130.50,33.00
2022-08-31 06:00, 0.51,5.1,0.82,128.50,33.00
2022-08-31 07:00, 0.52,5.7,0.81,129.50,33.00
2022-08-31 08:00, 0.48,5.9,0.88,131.50,33.00
2022-08-31 09:00, 0.51,5.6,0.75,130.50,30.00
2022-08-31 10:00, 0.50,5.9,0.84,133.50,32.00
2022-08-31 11:00, 0.47,5.0,0.77,130.50,31.00
2022-08-31 12:00, 0.49,5.3,0.78,130.50,30.00
2022-08-31 13:00, 0.54,5.7,0.85,128.50,30.00
2022-08-31 14:00, 0.50,5.4,0.82,131.50,31.00
2022-08-31 16:00, 0.61,5.9,0.96,127.50,29.00
2022-08-31 17:00, 0.62,5.6,1.10,127.50,30.00
2022-08-31 18:00, 0.54,3.8,0.86,129.50,32.00
2022-08-31 19:00, 0.56,3.7,0.95,122.50,36.00
2022-08-31 20:00, 0.53,5.6,0.83,122.50,35.00
2022-08-31 21:00, 0.47,5.1,0.73,128.50,31.00
2022-08-31 22:00, 0.46,5.1,0.67,127.50,31.00
2022-08-31 23:00, 0.45,4.5,0.71,132.50,29.00
2022-09-01 00:00, 0.41,5.3,0.68,133.50,30.00
2022-09-01 01:00, 0.46,5.3,0.76,132.50,28.00
2022-09-01 02:00, 0.44,5.4,0.81,132.50,28.00
2022-09-01 03:00, 0.44,5.7,0.76,128.50,30.00
2022-09-01 04:00, 0.44,5.6,0.64,129.50,29.00
2022-09-01 05:00, 0.42,5.1,0.69,129.50,29.00
2022-09-01 06:00, 0.45,5.6,0.73,128.50,31.00
2022-09-01 07:00, 0.44,5.4,0.66,129.50,31.00
2022-09-01 08:00, 0.10,0.4,8.70,348.16,140.00
2022-09-01 09:00, 0.43,5.1,0.69,126.50,28.00
2022-09-01 10:00, 0.46,4.7,0.72,125.50,27.00
2022-09-01 11:00, 0.51,5.4,0.85,121.50,24.00
2022-09-01 12:00, 0.51,4.9,0.76,122.50,27.00
2022-09-01 13:00, 0.46,5.0,0.74,126.50,26.00
2022-09-01 14:00, 0.47,4.9,0.87,124.50,25.00
2022-09-01 15:00, 0.49,8.7,0.85,126.50,24.00
2022-09-01 16:00, 0.55,5.4,0.85,124.50,27.00
2022-09-01 17:00, 0.60,4.9,1.09,122.50,28.00
2022-09-01 18:00, 0.64,4.7,0.97,124.50,29.00
2022-09-01 19:00, 0.63,4.9,1.07,123.50,30.00
2022-09-01 20:00, 0.54,3.6,0.96,119.50,33.00
2022-09-01 21:00, 0.53,4.4,0.88,119.50,33.00
2022-09-01 22:00, 0.55,3.8,0.80,119.50,27.00
2022-09-01 23:00, 0.56,8.7,0.85,122.50,26.00
2022-09-02 00:00, 0.46,5.4,0.71,126.50,28.00
2022-09-02 01:00, 0.41,5.1,0.66,127.50,30.00
2022-09-02 02:00, 0.42,5.3,0.77,126.50,28.00
2022-09-02 03:00, 0.48,5.0,0.79,123.50,26.00
2022-09-02 04:00, 0.46,4.9,0.75,121.50,25.00
2022-09-02 05:00, 0.50,5.1,0.72,118.50,27.00
2022-09-02 06:00, 0.52,5.1,0.85,114.50,27.00
2022-09-02 07:00, 0.52,4.8,0.95,113.50,26.00
2022-09-02 08:00, 0.53,4.1,0.91,113.50,23.00
2022-09-02 09:00, 0.50,5.6,0.98,112.50,24.00
2022-09-02 10:00, 0.50,5.3,0.87,114.50,26.00
2022-09-02 11:00, 0.56,5.6,0.91,114.50,22.00
2022-09-02 12:00, 0.53,5.0,0.86,115.50,27.00
2022-09-02 13:00, 0.46,5.1,0.67,117.50,28.00
2022-09-02 14:00, 0.46,5.3,0.74,118.50,27.00
2022-09-02 15:00, 0.50,5.6,0.74,118.50,28.00
2022-09-02 16:00, 0.58,5.1,0.88,117.50,26.00
2022-09-02 17:00, 0.66,5.1,0.94,116.50,26.00
2022-09-02 18:00, 0.77,4.1,1.60,115.50,26.00
2022-09-02 19:00, 0.80,4.5,1.28,115.50,27.00
2022-09-02 20:00, 0.91,4.7,1.40,111.50,26.00
2022-09-02 21:00, 0.86,4.7,1.51,113.50,27.00
2022-09-02 22:00, 0.75,4.7,1.41,110.50,28.00
2022-09-02 23:00, 0.70,4.7,1.34,114.50,28.00
2022-09-03 00:00, 0.71,4.9,1.19,110.50,30.00
2022-09-03 01:00, 0.61,5.4,1.08,113.50,30.00
2022-09-03 02:00, 0.57,5.6,0.95,115.50,26.00
2022-09-03 03:00, 0.52,5.3,0.94,119.50,29.00
2022-09-03 04:00, 0.52,5.1,0.88,117.50,30.00
2022-09-03 05:00, 0.50,5.3,0.85,118.50,36.00
2022-09-03 06:00, 0.53,4.7,0.78,116.50,33.00
2022-09-03 07:00, 0.53,5.4,0.89,115.50,31.00
2022-09-03 08:00, 0.56,5.7,1.05,111.50,28.00
2022-09-03 09:00, 0.55,5.0,0.92,112.50,29.00
2022-09-03 10:00, 0.47,5.3,0.76,112.50,29.00
2022-09-03 11:00, 0.51,5.4,0.88,113.50,27.00
2022-09-03 12:00, 0.52,5.0,0.77,108.50,25.00
2022-09-03 13:00, 0.47,5.0,0.84,113.50,30.00
2022-09-03 14:00, 0.46,6.1,0.75,114.50,31.00
2022-09-03 15:00, 0.43,6.3,0.67,117.50,31.00
2022-09-03 16:00, 0.48,5.4,0.76,114.50,27.00
2022-09-03 17:00, 0.49,4.9,0.77,116.50,26.00
2022-09-03 18:00, 0.50,4.5,0.75,115.50,25.00
2022-09-03 19:00, 0.72,4.5,1.21,111.50,23.00
2022-09-03 20:00, 0.65,4.5,0.99,108.50,26.00
2022-09-03 21:00, 0.53,4.2,0.95,109.50,28.00
2022-09-03 22:00, 0.48,4.4,0.98,110.50,29.00
2022-09-03 23:00, 0.43,4.7,0.68,111.50,30.00
2022-09-04 00:00, 0.38,6.9,0.59,114.50,31.00
2022-09-04 01:00, 0.36,4.4,0.54,115.50,31.00
2022-09-04 02:00, 0.34,5.0,0.59,119.50,36.00
2022-09-04 03:00, 0.31,4.4,0.53,119.50,36.00
2022-09-04 04:00, 0.33,9.5,0.49,121.50,33.00
2022-09-04 05:00, 0.32,4.9,0.50,118.50,31.00
2022-09-04 06:00, 0.34,4.9,0.57,118.50,28.00
2022-09-04 07:00, 0.33,5.0,0.53,116.50,31.00
2022-09-04 08:00, 0.32,4.5,0.54,124.50,35.00
2022-09-04 09:00, 0.33,3.2,0.55,172.50,38.00
2022-09-04 10:00, 0.31,3.3,0.54,177.50,40.00
2022-09-04 11:00, 0.31,3.8,0.52,184.50,40.00
2022-09-04 12:00, 0.29,9.1,0.47,174.50,38.00
2022-09-04 13:00, 0.28,3.3,0.50,176.50,36.00
2022-09-04 14:00, 0.33,3.2,0.55,179.50,36.00
2022-09-04 15:00, 0.32,3.1,0.58,184.50,38.00
2022-09-04 16:00, 0.31,3.3,0.48,193.50,39.00
2022-09-04 17:00, 0.42,2.9,0.67,218.50,35.00
2022-09-04 18:00, 0.61,3.5,1.12,226.50,32.00
2022-09-04 19:00, 0.68,3.5,1.15,241.50,32.00
2022-09-04 20:00, 0.80,3.6,1.40,243.50,28.00
2022-09-04 21:00, 0.72,3.8,1.16,244.50,33.00
2022-09-04 22:00, 0.71,3.9,1.24,246.50,31.00
2022-09-04 23:00, 0.66,3.7,1.05,248.50,32.00
2022-09-05 00:00, 0.69,3.6,1.16,248.50,34.00
2022-09-05 01:00, 0.66,3.4,1.03,245.50,34.00
2022-09-05 02:00, 0.74,3.4,1.22,228.50,35.00
2022-09-05 03:00, 0.67,4.7,1.25,203.50,35.00
2022-09-05 04:00, 0.58,4.7,1.04,190.50,33.00
2022-09-05 05:00, 0.51,4.9,0.80,175.50,31.00
2022-09-05 06:00, 0.46,4.9,0.84,159.50,30.00
2022-09-05 07:00, 0.44,4.4,0.63,160.50,35.00
2022-09-05 08:00, 0.44,4.7,0.70,161.50,34.00
2022-09-05 09:00, 0.41,4.5,0.64,167.50,38.00
2022-09-05 10:00, 0.56,4.0,0.79,168.50,34.00
2022-09-05 11:00, 0.57,4.0,0.96,162.50,35.00
2022-09-05 12:00, 0.62,3.8,1.09,175.50,33.00
2022-09-05 13:00, 0.53,4.1,0.95,166.50,38.00
2022-09-05 14:00, 0.52,4.8,0.86,161.50,36.00
2022-09-05 15:00, 0.56,4.0,0.97,151.50,33.00
2022-09-05 16:00, 0.58,5.6,1.10,141.50,29.00
2022-09-05 17:00, 0.57,5.4,0.94,136.50,28.00
2022-09-05 18:00, 0.56,5.6,0.97,147.50,32.00
2022-09-05 19:00, 0.57,6.3,1.25,154.50,31.00
2022-09-05 20:00, 0.64,5.9,1.18,154.50,30.00
2022-09-05 21:00, 0.62,5.9,1.03,170.50,31.00
2022-09-05 22:00, 0.65,5.9,1.16,166.50,29.00
2022-09-05 23:00, 0.65,6.1,1.16,181.50,33.00
2022-09-06 00:00, 0.62,5.9,0.90,161.50,31.00
2022-09-06 01:00, 0.61,5.6,0.92,148.50,28.00
2022-09-06 02:00, 0.61,5.9,1.13,145.50,27.00
2022-09-06 03:00, 0.69,5.9,1.24,141.50,28.00
2022-09-06 04:00, 0.68,6.1,0.97,144.50,33.00
2022-09-06 05:00, 0.76,5.7,1.12,151.50,33.00
2022-09-06 06:00, 0.71,6.1,1.14,155.50,37.00
2022-09-06 07:00, 0.64,5.9,0.93,167.50,36.00
2022-09-06 08:00, 0.61,6.3,1.00,166.50,37.00
2022-09-06 09:00, 0.58,5.9,0.92,164.50,37.00
2022-09-06 10:00, 0.51,5.6,0.79,157.50,37.00
2022-09-06 11:00, 0.55,5.7,0.97,158.50,38.00
2022-09-06 12:00, 0.59,6.1,0.97,150.50,34.00
2022-09-06 13:00, 0.67,6.1,1.30,155.50,35.00
2022-09-06 14:00, 0.68,5.6,1.08,142.50,34.00
2022-09-06 15:00, 0.70,5.7,1.10,145.50,35.00
2022-09-06 16:00, 0.69,6.1,1.05,154.50,37.00
2022-09-06 17:00, 0.60,5.9,1.08,155.50,39.00
2022-09-06 18:00, 0.56,5.6,1.03,168.50,41.00
2022-09-06 19:00, 0.58,5.6,1.15,172.50,36.00
2022-09-06 20:00, 0.57,6.1,0.85,176.50,36.00
2022-09-06 21:00, 0.57,5.7,0.94,174.50,37.00
2022-09-06 22:00, 0.49,6.1,0.81,184.50,42.00
2022-09-06 23:00, 0.57,5.7,0.87,171.50,37.00
2022-09-07 00:00, 0.55,5.6,0.81,170.50,40.00
2022-09-07 01:00, 0.58,5.7,1.04,168.50,37.00
2022-09-07 02:00, 0.56,5.6,1.24,170.50,37.00
2022-09-07 03:00, 0.62,5.6,1.07,172.50,37.00
2022-09-07 04:00, 0.59,5.7,0.97,170.50,38.00
2022-09-07 05:00, 0.58,5.7,1.00,171.50,38.00
2022-09-07 06:00, 0.52,5.4,0.85,169.50,37.00
2022-09-07 07:00, 0.50,5.7,0.87,173.50,39.00
2022-09-07 08:00, 0.50,5.7,0.78,163.50,35.00
2022-09-07 09:00, 0.52,5.7,0.84,163.50,33.00
2022-09-07 10:00, 0.47,5.6,0.72,167.50,35.00
2022-09-07 11:00, 0.47,5.3,0.81,175.50,42.00
2022-09-07 12:00, 0.50,5.6,0.82,164.50,34.00
2022-09-07 13:00, 0.57,5.7,0.92,168.50,36.00
2022-09-07 14:00, 0.56,5.9,1.16,168.50,36.00
2022-09-07 15:00, 0.57,5.3,1.05,165.50,37.00
2022-09-07 16:00, 0.57,5.6,0.87,168.50,38.00
2022-09-07 17:00, 0.57,5.4,1.07,165.50,35.00
2022-09-07 18:00, 0.55,5.3,0.92,164.50,34.00
2022-09-07 19:00, 0.53,5.0,0.88,166.50,37.00
2022-09-07 20:00, 0.51,5.4,0.82,168.50,39.00
2022-09-07 21:00, 0.54,5.3,1.07,172.50,38.00
2022-09-07 22:00, 0.53,5.4,0.83,174.50,39.00
2022-09-07 23:00, 0.51,5.7,1.02,177.50,39.00
2022-09-08 00:00, 0.47,5.7,0.70,181.50,43.00
2022-09-08 01:00, 0.46,5.1,0.74,173.50,40.00
2022-09-08 02:00, 0.43,5.7,0.65,176.50,44.00
2022-09-08 03:00, 0.49,5.1,0.84,165.50,36.00
2022-09-08 04:00, 0.47,5.0,0.78,167.50,40.00
2022-09-08 05:00, 0.53,5.6,1.07,169.50,38.00
2022-09-08 06:00, 0.50,5.7,0.79,179.50,40.00
2022-09-08 07:00, 0.48,5.4,0.82,181.50,39.00
2022-09-08 08:00, 0.47,5.3,0.69,194.50,38.00
2022-09-08 09:00, 0.48,5.4,0.78,196.50,38.00
2022-09-08 10:00, 0.48,5.4,0.97,190.50,40.00
2022-09-08 11:00, 0.48,5.3,0.99,184.50,37.00
2022-09-08 12:00, 0.51,4.8,0.80,179.50,35.00
2022-09-08 13:00, 0.49,5.3,0.82,178.50,36.00
2022-09-08 14:00, 0.46,5.0,0.87,166.50,37.00
2022-09-08 15:00, 0.47,5.6,1.01,164.50,36.00
2022-09-08 16:00, 0.49,5.1,0.78,168.50,34.00
2022-09-08 17:00, 0.53,4.5,0.92,163.50,33.00
2022-09-08 18:00, 0.50,4.0,0.80,168.50,36.00
2022-09-08 19:00, 0.54,4.8,0.98,166.50,34.00
2022-09-08 20:00, 0.53,5.0,0.77,176.50,35.00
2022-09-08 21:00, 0.47,4.3,0.73,177.50,37.00
2022-09-08 22:00, 0.49,5.0,0.92,175.50,35.00
2022-09-08 23:00, 0.43,5.0,0.73,176.50,39.00
2022-09-09 00:00, 0.47,4.5,0.79,178.50,36.00
2022-09-09 01:00, 0.47,4.5,0.71,173.50,36.00
2022-09-09 02:00, 0.52,4.7,0.97,171.50,33.00
2022-09-09 03:00, 0.53,4.5,0.88,173.50,32.00
2022-09-09 04:00, 0.50,4.9,0.85,172.50,35.00
2022-09-09 05:00, 0.51,4.7,0.87,169.50,36.00
2022-09-09 06:00, 0.53,4.7,0.94,174.50,34.00
2022-09-09 07:00, 0.49,4.5,0.80,171.50,35.00
2022-09-09 08:00, 0.47,4.5,0.88,171.50,37.00
2022-09-09 09:00, 0.45,4.8,0.82,172.50,37.00
2022-09-09 10:00, 0.45,4.7,0.72,176.50,36.00
2022-09-09 11:00, 0.47,4.3,0.82,177.50,36.00
2022-09-09 12:00, 0.45,4.5,0.71,172.50,37.00
2022-09-09 13:00, 0.45,4.7,0.69,174.50,33.00
2022-09-09 14:00, 0.45,4.7,0.79,167.50,31.00
2022-09-09 15:00, 0.46,4.3,0.73,161.50,32.00
2022-09-09 16:00, 0.50,4.2,0.76,153.50,33.00
2022-09-09 17:00, 0.51,4.3,0.81,153.50,34.00
2022-09-09 18:00, 0.59,3.9,1.08,147.50,32.00
2022-09-09 19:00, 0.63,4.2,1.00,144.50,33.00
2022-09-09 20:00, 0.64,5.1,1.08,146.50,32.00
2022-09-09 21:00, 0.67,5.1,1.03,145.50,32.00
2022-09-09 22:00, 0.66,4.3,1.21,155.50,31.00
2022-09-09 23:00, 0.60,4.7,1.24,160.50,33.00
2022-09-10 00:00, 0.68,5.3,1.11,157.50,31.00
2022-09-10 01:00, 0.65,4.7,0.99,159.50,32.00
2022-09-10 02:00, 0.67,5.3,1.23,157.50,31.00
2022-09-10 03:00, 0.64,5.0,1.31,153.50,34.00
2022-09-10 04:00, 0.66,5.1,1.10,155.50,31.00
2022-09-10 05:00, 0.65,5.0,1.19,155.50,31.00
2022-09-10 06:00, 0.71,4.8,1.29,153.50,29.00
2022-09-10 07:00, 0.70,5.1,1.12,151.50,30.00
2022-09-10 08:00, 0.69,5.4,1.04,153.50,31.00
2022-09-10 09:00, 0.62,5.1,1.13,150.50,33.00
2022-09-10 10:00, 0.62,5.1,1.15,150.50,32.00
2022-09-10 11:00, 0.62,5.4,1.02,158.50,32.00
2022-09-10 12:00, 0.60,4.8,0.86,160.50,31.00
2022-09-10 13:00, 0.60,4.9,1.11,159.50,31.00
2022-09-10 14:00, 0.62,4.9,1.12,145.50,30.00
2022-09-10 15:00, 0.68,5.0,1.12,138.50,31.00
2022-09-10 16:00, 0.69,5.3,1.29,138.50,30.00
2022-09-10 17:00, 0.70,5.4,1.10,142.50,29.00
2022-09-10 18:00, 0.84,5.4,1.43,134.50,29.00
2022-09-10 19:00, 0.81,5.0,1.52,135.50,30.00
2022-09-10 20:00, 0.82,4.7,1.44,135.50,28.00
2022-09-10 21:00, 0.66,5.4,0.99,135.50,31.00
2022-09-10 22:00, 0.64,5.1,1.03,142.50,31.00
2022-09-10 23:00, 0.64,5.4,0.97,145.50,30.00
2022-09-11 00:00, 0.65,5.6,1.13,151.50,28.00
2022-09-11 01:00, 0.63,5.6,1.01,148.50,30.00
2022-09-11 02:00, 0.62,4.5,0.93,150.50,29.00
2022-09-11 03:00, 0.59,5.3,1.16,154.50,29.00
2022-09-11 04:00, 0.55,5.0,0.99,150.50,30.00
2022-09-11 05:00, 0.60,5.3,0.97,148.50,28.00